Location: �chenoz-la-M�line
(47.6009°N, 6.1354°E)
Time: 13:08:23
(UTC+00:00)

Cosmos 1184 Rocket - Pass Details

Date: 27 January 2021
Orbit: 404 x 416 km, 81.2° (Epoch: 02 March)

Event Time Altitude Azimuth Distance (km) Brightness Sun altitude
Rises 06:12:38 0° 352° (N) 2,373 6.3 -9.5°
Reaches altitude 10° 06:14:42 10° 357° (N) 1,506 5.4 -9.2°
Maximum altitude 06:17:56 55° 77° (ENE) 513 3.5 -8.6°
Drops below altitude 10° 06:21:08 10° 156° (SSE) 1,496 6.2 -8.1°
Sets 06:23:11 0° 161° (SSE) 2,356 7.1 -7.8°
